Погода в Шиели

Погода в Шиели : погода сейчас, прогноз погоды и архив. Всё, что Вы хотите узнать о погоде в Шиели!

Хотите узнать прогноз погоды в Шиели? Тогда Вам сюда: Погода в Шиели

Поиск расширенной информации на нашем сайте:

Другие новости

Новости СМИ2

Главная страница сайта

Новости сайта

03.07.2017

Напоминаем, что на нашем специализированном сайте Метеоцентр.Азия вы можете получить высокодетализированные автоматические прогнозы погоды по пунктам России, СНГ и мира в авиационном формате (включающие направление и скорость ветра, видимость, явления погоды, количество и форму облачности, нижнюю и верхнюю границу облачности).


Погода в Шиели - сегодня

Время (UTC), дата Ветер
(°,м/с) 
Видим.   Явления Облачность Т
(°С)
Тd
(°С)
f(%) Тe
(°С)
Pmin
(гПа)
dP
(гПа)
Po
(мм)
O2
(г/м3)
Тmin Tmax R s Состояние
почвы
18 15.04.18 230 (ЮЗ) н/о    ясно 
+11.3 -0.2 45 +12  1014.4  1.1  747  289    +17.5       
21 15.04.18 210 (ЮЗ) н/о    ясно 
+7.1 -2.7 50 +7  1015.4  0.8  748  294           
00 16.04.18 250 (З) н/о    ясно 
+3.8 -4.6 54 +3  1016.8  1.1  748  298           
06 16.04.18 300 (СЗ) 20000 м    1/0 верхняя 
[Ci fib]
+16.6 -3.6 25 +17  1019.5  1.6  751  286  +3.5         
09 16.04.18 310 (СЗ) 20000 м    3/0 верхняя 
[Ci fib]
+19.3 -6.7 17 +20  1018.4  -0.8  750  283           
12 16.04.18 300 (СЗ) 20000 м    8/0 верхняя 
[Cs]
+19.1 +4.1 37 +20  1018  -0.6  750  282           
15 16.04.18 320 (СЗ) н/о    8/0 верхняя 
[Cc]
+16.2 -1.4 30 +17  1018.4  0.3  750  285    +20.2       
18 16.04.18 340 (С) н/о    8/0 средняя 
[Ac cast]
+14 +0.9 41 +15  1018.6  0.1  750  287    +20.2       
00 17.04.18 310 (СЗ) н/о    9/0 средняя 
[Ac As]
+6.4 -1.7 56 +5  1018.7  750  295           
03 17.04.18 340 (С) 10 км    9/0 средняя 
[Ac cuf]
+10.4 +6 74 +10  1018  -0.5  750  290           
06 17.04.18 360 (С) 10 км    9/0 средняя 
[As trans]
+13.1 -1.9 35 +12  1018.3  0.5  750  289  +6.2         
09 17.04.18 330 (СЗ) 10 км    9/0 средняя 
[As trans]
+13.3 -1.2 37 +13  1017.6  -0.7  749  288           
21 17.04.18 210 (ЮЗ) н/о    ясно 
+5.3 +2.1 80 +6  1023.1  0.5  753  297           
00 18.04.18 160 (Ю) н/о    6/0 средняя 
[Ac lent]
+4.4 +0.2 74 +5  1024.3  754  299           
06 18.04.18 160 (Ю) 20000 м    ясно 
+12.9 +4.6 57 +14  1025.5  0.7  755  290  +4.1    0.4     
09 18.04.18 250 (З) 20000 м    8/8 600 м 
[Cu med, cong]
+17.3 -1.2 28 +18  1023.9  -1.4  754  286           
12 18.04.18 270 (З) 20000 м    8/8 600 м 
[Cu med, cong]
+18.5 -4.1 21 +19  1022.7  -1  753  285           
15 18.04.18 210 (ЮЗ) н/о    9/0 средняя 
[Ac As]
+15.8 +0.9 36 +17  1023  0.1  754  287    +19.2       
18 18.04.18 210 (ЮЗ) н/о    9/0 средняя 
[Ac und]
+13.6 +2.5 47 +15  1023  -0.1  753  289    +19.2       
21 18.04.18 250 (З) н/о    9/0 средняя 
[Ac und]
+11.2 +2.3 54 +11  1022.3  -0.8  753  291           
00 19.04.18 тихо ()   н/о    9/0 средняя 
[Ac cuf]
+9 +1.3 58 +9  1022.7  0.1  753  293           
06 19.04.18 300 (СЗ) 20000 м    9/0 верхняя 
[Cc]
+16.5 -3.6 25 +18  1021.8  -0.4  753  286  +8.4         
09 19.04.18 290 (З) 20000 м    8/8 600 м 
[Cu med, cong]
+18.7 -3.3 22 +20  1020.1  -1.5  752  284           
12 19.04.18 350 (С) 20000 м    8/8 600 м 
[Cu med, cong]
+18.8 -0.7 27 +19  1019.7  -0.4  751  283           
15 19.04.18 340 (С) н/о    3/0 верхняя 
[Ci ing]
+14.7 +0.4 38 +15  1020.4  0.5  752  287    +20.2       
Время (UTC), дата Ветер
(°,м/с) 
Видим.   Явления Облачность Т
(°С)
Тd
(°С)
f(%) Тe
(°С)
Pmin
(гПа)
dP
(гПа)
Po
(мм)
O2
(г/м3)
Тmin Tmax R s Состояние
почвы

Для получения пояснительной информации подведите курсор к названию столбца.

ПОГОДА в Шиели - архив

Всё, что Вы хотите узнать о погоде в Шиели - удобно и подробно!

Выберите нужную дату (начиная с 1 января 2015* года) и нажмите кнопку "Найти".
Будут отображены архивные сводки погоды по пункту Шиели, начиная с указанной даты.


Отображать данные в формате CSV (для использования в таблицах Excel)


Внимание! Наш архив погоды предназначен исключительно для личного некоммерческого использования в познавательных целях. Если Вам необходимы официальные справки о состоянии погоды (для производственных, юридических, коммерческих и т.п. целей), обращайтесь в органы Росгидромета.

*Примечание: данная дата относится к архиву по метеостанциям СССР (Россия, СНГ, Балтия).
Архив по метеостанциям Зарубежной Европы и Азии (кроме Китая) хранится 10 дней, по другим регионам земного шара (Китай, Африка, Америка, Австралия, Океания) - 1 день.

Шиели - район местоположения метеостанции


Название, широта, долгота, высота метеостанции:
Шиели (Чиили) 44.2°ш. 66.8°д. 153 м над ур. моря [Казахстан]

Дополнительная информация

В oтличие oт бoльшинства пoгoдных сайтoв мы публикуем пoдрoбную метеoинфoрмацию в детальнoм прoфессиoнальнoм фoрмате.

Характеристики температуры и влажнoсти вoздуха измеряются на высoте 2 м в тени вдали oт зданий и деревьев.
Скoрoсть ветра измеряется на высoте 10 м (на урoвне рoста челoвека скoрoсть ветра ниже в 1.5-2 раза). Если метеoстанция нахoдится в гoрoде или в лесу, тo скoрoсть ветра занижена на 2-4 м/с пo сравнению с oткрытым местoм. Скoрoсть ветра над акватoриями крупных рек и oзёр, а также на вершинах хoлмoв на 2-5 м/с выше, чем в oбычных услoвиях.
Атмoсфернoе давление в разных тoчках местнoсти мoжет значительнo oтличаться oт давления на метеoстанции, в зависимoсти oт услoвий рельефа (при пoдъёме на 10 м давление пoнижается примернo на 1 мм рт.ст.).